Year,Month,Day,Hour,Minute,Value (Times are PST for temperature in C)
2010,07,15,00,00,15.70
2010,07,15,00,01,15.70
2010,07,15,00,02,15.70
2010,07,15,00,03,15.70
2010,07,15,00,04,15.70
2010,07,15,00,05,15.70
2010,07,15,00,06,15.70
2010,07,15,00,07,15.70
2010,07,15,00,08,15.70
2010,07,15,00,09,15.70
2010,07,15,00,10,15.70
2010,07,15,00,11,15.70
2010,07,15,00,12,15.70
2010,07,15,00,13,15.70
2010,07,15,00,14,15.70
2010,07,15,00,15,15.70
2010,07,15,00,16,15.60
2010,07,15,00,17,15.60
2010,07,15,00,18,15.60
2010,07,15,00,19,15.60
2010,07,15,00,20,15.50
2010,07,15,00,21,15.50
2010,07,15,00,22,15.50
2010,07,15,00,23,15.40
2010,07,15,00,24,15.40
2010,07,15,00,25,15.40
2010,07,15,00,26,15.40
2010,07,15,00,27,15.40
2010,07,15,00,28,15.30
2010,07,15,00,29,15.30
2010,07,15,00,30,15.30
2010,07,15,00,31,15.30
2010,07,15,00,32,15.30
2010,07,15,00,33,15.30
2010,07,15,00,34,15.30
2010,07,15,00,35,15.30
2010,07,15,00,36,15.20
2010,07,15,00,37,15.20
2010,07,15,00,38,15.20
2010,07,15,00,39,15.20
2010,07,15,00,40,15.10
2010,07,15,00,41,15.10
2010,07,15,00,42,15.00
2010,07,15,00,43,15.00
2010,07,15,00,44,15.00
2010,07,15,00,45,15.00
2010,07,15,00,46,15.00
2010,07,15,00,47,15.00
2010,07,15,00,48,15.00
2010,07,15,00,49,15.00
2010,07,15,00,50,15.00
2010,07,15,00,51,15.00
2010,07,15,00,52,15.00
2010,07,15,00,53,15.00
2010,07,15,00,54,15.00
2010,07,15,00,55,15.00
2010,07,15,00,56,15.00
2010,07,15,00,57,15.00
2010,07,15,00,58,14.90
2010,07,15,00,59,14.90
2010,07,15,01,00,14.90
2010,07,15,01,01,14.80
2010,07,15,01,02,14.80
2010,07,15,01,03,14.80
2010,07,15,01,04,14.80
2010,07,15,01,05,14.80
2010,07,15,01,06,14.80
2010,07,15,01,07,14.80
2010,07,15,01,08,14.80
2010,07,15,01,09,14.80
2010,07,15,01,10,14.80
2010,07,15,01,11,14.80
2010,07,15,01,12,14.70
2010,07,15,01,13,14.70
2010,07,15,01,14,14.70
2010,07,15,01,15,14.70
2010,07,15,01,16,14.70
2010,07,15,01,17,14.60
2010,07,15,01,18,14.60
2010,07,15,01,19,14.60
2010,07,15,01,20,14.60
2010,07,15,01,21,14.60
2010,07,15,01,22,14.60
2010,07,15,01,23,14.60
2010,07,15,01,24,14.60
2010,07,15,01,25,14.60
2010,07,15,01,26,14.60
2010,07,15,01,27,14.60
2010,07,15,01,28,14.60
2010,07,15,01,29,14.60
2010,07,15,01,30,14.60
2010,07,15,01,31,14.60
2010,07,15,01,32,14.60
2010,07,15,01,33,14.60
2010,07,15,01,34,14.60
2010,07,15,01,35,14.60
2010,07,15,01,36,14.60
2010,07,15,01,37,14.50
2010,07,15,01,38,14.50
2010,07,15,01,39,14.50
2010,07,15,01,40,14.50
2010,07,15,01,41,14.40
2010,07,15,01,42,14.40
2010,07,15,01,43,14.40
2010,07,15,01,44,14.40
2010,07,15,01,45,14.30
2010,07,15,01,46,14.30
2010,07,15,01,47,14.30
2010,07,15,01,48,14.30
2010,07,15,01,49,14.30
2010,07,15,01,50,14.30
2010,07,15,01,51,14.30
2010,07,15,01,52,14.30
2010,07,15,01,53,14.20
2010,07,15,01,54,14.20
2010,07,15,01,55,14.20
2010,07,15,01,56,14.20
2010,07,15,01,57,14.20
2010,07,15,01,58,14.20
2010,07,15,01,59,14.20
2010,07,15,02,00,14.20
2010,07,15,02,01,14.20
2010,07,15,02,02,14.20
2010,07,15,02,03,14.20
2010,07,15,02,04,14.20
2010,07,15,02,05,14.20
2010,07,15,02,06,14.20
2010,07,15,02,07,14.20
2010,07,15,02,08,14.20
2010,07,15,02,09,14.20
2010,07,15,02,10,14.20
2010,07,15,02,11,14.20
2010,07,15,02,12,14.20
2010,07,15,02,13,14.20
2010,07,15,02,14,14.20
2010,07,15,02,15,14.30
2010,07,15,02,16,14.30
2010,07,15,02,17,14.30
2010,07,15,02,18,14.30
2010,07,15,02,19,14.30
2010,07,15,02,20,14.30
2010,07,15,02,21,14.30
2010,07,15,02,22,14.30
2010,07,15,02,23,14.30
2010,07,15,02,24,14.30
2010,07,15,02,25,14.30
2010,07,15,02,26,14.40
2010,07,15,02,27,14.40
2010,07,15,02,28,14.40
2010,07,15,02,29,14.40
2010,07,15,02,30,14.40
2010,07,15,02,31,14.40
2010,07,15,02,32,14.50
2010,07,15,02,33,14.60
2010,07,15,02,34,14.60
2010,07,15,02,35,14.60
2010,07,15,02,36,14.70
2010,07,15,02,37,14.70
2010,07,15,02,38,14.70
2010,07,15,02,39,14.70
2010,07,15,02,40,14.70
2010,07,15,02,41,14.60
2010,07,15,02,42,14.60
2010,07,15,02,43,14.60
2010,07,15,02,44,14.60
2010,07,15,02,45,14.60
2010,07,15,02,46,14.60
2010,07,15,02,47,14.60
2010,07,15,02,48,14.50
2010,07,15,02,49,14.50
2010,07,15,02,50,14.50
2010,07,15,02,51,14.40
2010,07,15,02,52,14.40
2010,07,15,02,53,14.40
2010,07,15,02,54,14.40
2010,07,15,02,55,14.50
2010,07,15,02,56,14.50
2010,07,15,02,57,14.50
2010,07,15,02,58,14.50
2010,07,15,02,59,14.60
2010,07,15,03,00,14.60
2010,07,15,03,01,14.60
2010,07,15,03,02,14.70
2010,07,15,03,03,14.70
2010,07,15,03,06,14.80
2010,07,15,03,07,14.80
2010,07,15,03,08,14.90
2010,07,15,03,09,14.90
2010,07,15,03,10,14.90
2010,07,15,03,11,14.90
2010,07,15,03,12,14.90
2010,07,15,03,13,14.90
2010,07,15,03,14,14.90
2010,07,15,03,15,15.00
2010,07,15,03,16,14.90
2010,07,15,03,17,14.90
2010,07,15,03,18,14.90
2010,07,15,03,19,14.90
2010,07,15,03,20,14.90
2010,07,15,03,21,14.90
2010,07,15,03,22,14.90
2010,07,15,03,23,14.90
2010,07,15,03,24,14.90
2010,07,15,03,25,14.90
2010,07,15,03,26,14.90
2010,07,15,03,27,14.90
2010,07,15,03,28,15.00
2010,07,15,03,29,15.00
2010,07,15,03,30,15.00
2010,07,15,03,31,15.00
2010,07,15,03,32,15.00
2010,07,15,03,33,15.00
2010,07,15,03,34,15.00
2010,07,15,03,35,15.00
2010,07,15,03,36,14.90
2010,07,15,03,37,14.90
2010,07,15,03,38,14.80
2010,07,15,03,39,14.80
2010,07,15,03,40,14.70
2010,07,15,03,41,14.70
2010,07,15,03,42,14.60
2010,07,15,03,43,14.60
2010,07,15,03,44,14.50
2010,07,15,03,45,14.40
2010,07,15,03,46,14.40
2010,07,15,03,47,14.30
2010,07,15,03,48,14.30
2010,07,15,03,49,14.20
2010,07,15,03,50,14.20
2010,07,15,03,51,14.10
2010,07,15,03,52,14.00
2010,07,15,03,53,14.00
2010,07,15,03,54,13.90
2010,07,15,03,55,13.90
2010,07,15,03,56,13.80
2010,07,15,03,57,13.80
2010,07,15,03,58,13.80
2010,07,15,03,59,13.80
2010,07,15,04,00,13.70
2010,07,15,04,01,13.70
2010,07,15,04,02,13.70
2010,07,15,04,03,13.70
2010,07,15,04,04,13.70
2010,07,15,04,05,13.60
2010,07,15,04,06,13.60
2010,07,15,04,07,13.60
2010,07,15,04,08,13.50
2010,07,15,04,09,13.50
2010,07,15,04,10,13.40
2010,07,15,04,11,13.40
2010,07,15,04,12,13.40
2010,07,15,04,13,13.40
2010,07,15,04,14,13.40
2010,07,15,04,15,13.40
2010,07,15,04,16,13.40
2010,07,15,04,17,13.40
2010,07,15,04,18,13.40
2010,07,15,04,19,13.30
2010,07,15,04,20,13.30
2010,07,15,04,21,13.30
2010,07,15,04,22,13.30
2010,07,15,04,23,13.20
2010,07,15,04,24,13.20
2010,07,15,04,25,13.20
2010,07,15,04,26,13.20
2010,07,15,04,27,13.10
2010,07,15,04,28,13.10
2010,07,15,04,29,13.10
2010,07,15,04,30,13.00
2010,07,15,04,31,13.00
2010,07,15,04,32,13.00
2010,07,15,04,33,12.90
2010,07,15,04,34,12.90
2010,07,15,04,35,12.90
2010,07,15,04,36,12.90
2010,07,15,04,37,12.80
2010,07,15,04,38,12.80
2010,07,15,04,39,12.80
2010,07,15,04,40,12.80
2010,07,15,04,41,12.80
2010,07,15,04,42,12.80
2010,07,15,04,43,12.80
2010,07,15,04,44,12.80
2010,07,15,04,45,12.80
2010,07,15,04,46,12.80
2010,07,15,04,47,12.80
2010,07,15,04,48,12.90
2010,07,15,04,49,12.90
2010,07,15,04,50,13.00
2010,07,15,04,51,13.00
2010,07,15,04,52,13.00
2010,07,15,04,53,13.00
2010,07,15,04,54,13.10
2010,07,15,04,55,13.10
2010,07,15,04,56,13.10
2010,07,15,04,57,13.10
2010,07,15,04,58,13.10
2010,07,15,04,59,13.10
2010,07,15,05,00,13.20
2010,07,15,05,01,13.20
2010,07,15,05,02,13.20
2010,07,15,05,03,13.20
2010,07,15,05,04,13.20
2010,07,15,05,05,13.10
2010,07,15,05,06,13.10
2010,07,15,05,07,13.10
2010,07,15,05,08,13.10
2010,07,15,05,09,13.10
2010,07,15,05,10,13.10
2010,07,15,05,11,13.10
2010,07,15,05,12,13.10
2010,07,15,05,13,13.10
2010,07,15,05,14,13.10
2010,07,15,05,15,13.10
2010,07,15,05,16,13.10
2010,07,15,05,17,13.10
2010,07,15,05,18,13.10
2010,07,15,05,19,13.10
2010,07,15,05,20,13.10
2010,07,15,05,21,13.10
2010,07,15,05,22,13.10
2010,07,15,05,23,13.00
2010,07,15,05,24,13.00
2010,07,15,05,25,12.90
2010,07,15,05,26,12.90
2010,07,15,05,27,12.90
2010,07,15,05,28,12.90
2010,07,15,05,29,12.90
2010,07,15,05,30,12.90
2010,07,15,05,31,12.90
2010,07,15,05,32,12.90
2010,07,15,05,33,12.80
2010,07,15,05,34,12.80
2010,07,15,05,35,12.80
2010,07,15,05,36,12.80
2010,07,15,05,37,12.80
2010,07,15,05,38,12.70
2010,07,15,05,39,12.70
2010,07,15,05,40,12.70
2010,07,15,05,41,12.70
2010,07,15,05,42,12.70
2010,07,15,05,43,12.70
2010,07,15,05,44,12.70
2010,07,15,05,45,12.70
2010,07,15,05,46,12.70
2010,07,15,05,47,12.70
2010,07,15,05,48,12.70
2010,07,15,05,49,12.70
2010,07,15,05,50,12.70
2010,07,15,05,51,12.70
2010,07,15,05,52,12.70
2010,07,15,05,53,12.70
2010,07,15,05,54,12.70
2010,07,15,05,55,12.80
2010,07,15,05,56,12.80
2010,07,15,05,57,12.80
2010,07,15,05,58,12.80
2010,07,15,05,59,12.80
2010,07,15,06,00,12.90
2010,07,15,06,01,12.90
2010,07,15,06,02,12.90
2010,07,15,06,03,12.90
2010,07,15,06,04,13.00
2010,07,15,06,05,13.00
2010,07,15,06,06,13.00
2010,07,15,06,07,13.10
2010,07,15,06,08,13.10
2010,07,15,06,09,13.10
2010,07,15,06,10,13.10
2010,07,15,06,11,13.20
2010,07,15,06,12,13.20
2010,07,15,06,13,13.20
2010,07,15,06,14,13.30
2010,07,15,06,15,13.30
2010,07,15,06,16,13.30
2010,07,15,06,17,13.30
2010,07,15,06,18,13.40
2010,07,15,06,19,13.40
2010,07,15,06,20,13.50
2010,07,15,06,21,13.50
2010,07,15,06,22,13.60
2010,07,15,06,23,13.80
2010,07,15,06,24,13.90
2010,07,15,06,25,14.00
2010,07,15,06,26,14.10
2010,07,15,06,27,14.20
2010,07,15,06,28,14.30
2010,07,15,06,29,14.40
2010,07,15,06,30,14.50
2010,07,15,06,31,14.60
2010,07,15,06,32,14.70
2010,07,15,06,33,14.80
2010,07,15,06,34,14.90
2010,07,15,06,35,15.00
2010,07,15,06,36,15.00
2010,07,15,06,37,15.00
2010,07,15,06,38,15.10
2010,07,15,06,39,15.20
2010,07,15,06,40,15.30
2010,07,15,06,41,15.40
2010,07,15,06,42,15.40
2010,07,15,06,43,15.50
2010,07,15,06,44,15.60
2010,07,15,06,45,15.60
2010,07,15,06,46,15.70
2010,07,15,06,47,15.70
2010,07,15,06,48,15.80
2010,07,15,06,49,15.80
2010,07,15,06,50,15.80
2010,07,15,06,51,15.90
2010,07,15,06,52,15.90
2010,07,15,06,53,15.90
2010,07,15,06,54,15.90
2010,07,15,06,55,15.90
2010,07,15,06,56,15.90
2010,07,15,06,57,15.90
2010,07,15,06,58,16.00
2010,07,15,06,59,16.00
2010,07,15,07,00,16.00
2010,07,15,07,01,16.00
2010,07,15,07,02,16.10
2010,07,15,07,03,16.10
2010,07,15,07,04,16.10
2010,07,15,07,05,16.10
2010,07,15,07,06,16.10
2010,07,15,07,07,16.10
2010,07,15,07,08,16.10
2010,07,15,07,09,16.10
2010,07,15,07,10,16.20
2010,07,15,07,11,16.20
2010,07,15,07,12,16.20
2010,07,15,07,13,16.20
2010,07,15,07,14,16.20
2010,07,15,07,15,16.20
2010,07,15,07,16,16.30
2010,07,15,07,17,16.30
2010,07,15,07,18,16.30
2010,07,15,07,19,16.30
2010,07,15,07,20,16.30
2010,07,15,07,21,16.40
2010,07,15,07,22,16.40
2010,07,15,07,23,16.40
2010,07,15,07,24,16.40
2010,07,15,07,25,16.40
2010,07,15,07,26,16.40
2010,07,15,07,27,16.40
2010,07,15,07,28,16.40
2010,07,15,07,29,16.40
2010,07,15,07,30,16.50
2010,07,15,07,31,16.50
2010,07,15,07,32,16.60
2010,07,15,07,33,16.60
2010,07,15,07,34,16.60
2010,07,15,07,35,16.60
2010,07,15,07,36,16.60
2010,07,15,07,37,16.50
2010,07,15,07,38,16.60
2010,07,15,07,39,16.60
2010,07,15,07,40,16.60
2010,07,15,07,41,16.60
2010,07,15,07,42,16.60
2010,07,15,07,43,16.60
2010,07,15,07,44,16.60
2010,07,15,07,45,16.60
2010,07,15,07,46,16.70
2010,07,15,07,47,16.70
2010,07,15,07,48,16.70
2010,07,15,07,49,16.70
2010,07,15,07,50,16.70
2010,07,15,07,51,16.70
2010,07,15,07,52,16.80
2010,07,15,07,53,16.80
2010,07,15,07,54,16.80
2010,07,15,07,55,16.80
2010,07,15,07,56,16.80
2010,07,15,07,57,16.90
2010,07,15,07,58,16.90
2010,07,15,07,59,16.90
2010,07,15,08,00,17.00
2010,07,15,08,01,17.00
2010,07,15,08,02,17.10
2010,07,15,08,03,17.20
2010,07,15,08,04,17.20
2010,07,15,08,05,17.20
2010,07,15,08,06,17.20
2010,07,15,08,07,17.20
2010,07,15,08,08,17.20
2010,07,15,08,09,17.20
2010,07,15,08,10,17.20
2010,07,15,08,11,17.20
2010,07,15,08,12,17.30
2010,07,15,08,13,17.30
2010,07,15,08,14,17.20
2010,07,15,08,15,17.30
2010,07,15,08,16,17.30
2010,07,15,08,17,17.30
2010,07,15,08,18,17.30
2010,07,15,08,19,17.40
2010,07,15,08,20,17.40
2010,07,15,08,21,17.40
2010,07,15,08,22,17.40
2010,07,15,08,23,17.50
2010,07,15,08,24,17.50
2010,07,15,08,25,17.60
2010,07,15,08,26,17.60
2010,07,15,08,27,17.60
2010,07,15,08,28,17.60
2010,07,15,08,29,17.60
2010,07,15,08,30,17.60
2010,07,15,08,31,17.70
2010,07,15,08,32,17.70
2010,07,15,08,33,17.80
2010,07,15,08,34,17.90
2010,07,15,08,35,17.90
2010,07,15,08,36,18.00
2010,07,15,08,37,18.00
2010,07,15,08,38,18.10
2010,07,15,08,39,18.10
2010,07,15,08,40,18.10
2010,07,15,08,41,18.20
2010,07,15,08,42,18.20
2010,07,15,08,43,18.30
2010,07,15,08,44,18.30
2010,07,15,08,45,18.40
2010,07,15,08,46,18.40
2010,07,15,08,47,18.50
2010,07,15,08,48,18.60
2010,07,15,08,49,18.70
2010,07,15,08,50,18.70
2010,07,15,08,51,18.70
2010,07,15,08,52,18.80
2010,07,15,08,53,18.80
2010,07,15,08,54,18.80
2010,07,15,08,55,18.80
2010,07,15,08,56,18.80
2010,07,15,08,57,18.80
2010,07,15,08,58,18.90
2010,07,15,08,59,18.90
2010,07,15,09,00,18.90
2010,07,15,09,01,18.90
2010,07,15,09,02,18.90
2010,07,15,09,03,18.90
2010,07,15,09,04,18.90
2010,07,15,09,05,18.80
2010,07,15,09,06,18.90
2010,07,15,09,07,18.90
2010,07,15,09,08,18.90
2010,07,15,09,09,18.90
2010,07,15,09,10,18.90
2010,07,15,09,11,18.90
2010,07,15,09,12,18.80
2010,07,15,09,13,18.80
2010,07,15,09,14,18.80
2010,07,15,09,15,18.80
2010,07,15,09,16,18.80
2010,07,15,09,17,18.80
2010,07,15,09,18,18.80
2010,07,15,09,19,18.80
2010,07,15,09,20,18.90
2010,07,15,09,21,18.90
2010,07,15,09,22,19.00
2010,07,15,09,23,19.10
2010,07,15,09,24,19.20
2010,07,15,09,25,19.10
2010,07,15,09,26,19.10
2010,07,15,09,27,19.10
2010,07,15,09,28,19.10
2010,07,15,09,29,19.10
2010,07,15,09,30,19.10
2010,07,15,09,31,19.10
2010,07,15,09,32,19.10
2010,07,15,09,33,19.20
2010,07,15,09,34,19.20
2010,07,15,09,35,19.20
2010,07,15,09,36,19.20
2010,07,15,09,37,19.30
2010,07,15,09,38,19.30
2010,07,15,09,39,19.30
2010,07,15,09,40,19.30
2010,07,15,09,41,19.40
2010,07,15,09,42,19.40
2010,07,15,09,43,19.40
2010,07,15,09,44,19.50
2010,07,15,09,45,19.50
2010,07,15,09,46,19.50
2010,07,15,09,47,19.50
2010,07,15,09,48,19.60
2010,07,15,09,49,19.50
2010,07,15,09,50,19.60
2010,07,15,09,51,19.60
2010,07,15,09,52,19.60
2010,07,15,09,53,19.70
2010,07,15,09,54,19.80
2010,07,15,09,55,19.80
2010,07,15,09,56,19.80
2010,07,15,09,57,19.80
2010,07,15,09,58,19.80
2010,07,15,09,59,19.80
2010,07,15,10,00,19.80
2010,07,15,10,01,19.90
2010,07,15,10,02,19.90
2010,07,15,10,03,19.90
2010,07,15,10,04,19.90
2010,07,15,10,05,19.90
2010,07,15,10,06,19.90
2010,07,15,10,07,19.90
2010,07,15,10,08,19.90
2010,07,15,10,09,20.00
2010,07,15,10,10,20.00
2010,07,15,10,11,20.10
2010,07,15,10,12,20.10
2010,07,15,10,13,20.20
2010,07,15,10,14,20.20
2010,07,15,10,15,20.20
2010,07,15,10,16,20.20
2010,07,15,10,17,20.30
2010,07,15,10,18,20.20
2010,07,15,10,19,20.20
2010,07,15,10,20,20.30
2010,07,15,10,21,20.30
2010,07,15,10,22,20.40
2010,07,15,10,23,20.40
2010,07,15,10,24,20.40
2010,07,15,10,25,20.50
2010,07,15,10,26,20.50
2010,07,15,10,27,20.50
2010,07,15,10,28,20.60
2010,07,15,10,29,20.60
2010,07,15,10,30,20.60
2010,07,15,10,31,20.70
2010,07,15,10,32,20.70
2010,07,15,10,33,20.70
2010,07,15,10,34,20.60
2010,07,15,10,35,20.70
2010,07,15,10,36,20.70
2010,07,15,10,37,20.70
2010,07,15,10,38,20.70
2010,07,15,10,39,20.70
2010,07,15,10,40,20.80
2010,07,15,10,41,20.80
2010,07,15,10,42,20.90
2010,07,15,10,43,21.00
2010,07,15,10,44,21.10
2010,07,15,10,45,21.10
2010,07,15,10,46,21.20
2010,07,15,10,47,21.20
2010,07,15,10,48,21.20
2010,07,15,10,49,21.20
2010,07,15,10,50,21.20
2010,07,15,10,51,21.20
2010,07,15,10,52,21.20
2010,07,15,10,53,21.20
2010,07,15,10,54,21.20
2010,07,15,10,55,21.30
2010,07,15,10,56,21.50
2010,07,15,10,57,21.50
2010,07,15,10,58,21.60
2010,07,15,10,59,21.70
2010,07,15,11,00,21.80
2010,07,15,11,01,21.80
2010,07,15,11,02,21.90
2010,07,15,11,03,22.00
2010,07,15,11,04,22.00
2010,07,15,11,05,22.00
2010,07,15,11,06,22.00
2010,07,15,11,07,22.00
2010,07,15,11,08,22.00
2010,07,15,11,09,22.00
2010,07,15,11,10,22.00
2010,07,15,11,11,22.00
2010,07,15,11,12,21.90
2010,07,15,11,13,21.90
2010,07,15,11,14,21.90
2010,07,15,11,15,21.90
2010,07,15,11,16,21.90
2010,07,15,11,17,22.00
2010,07,15,11,18,22.10
2010,07,15,11,19,22.10
2010,07,15,11,20,22.10
2010,07,15,11,21,22.00
2010,07,15,11,22,22.00
2010,07,15,11,23,22.10
2010,07,15,11,24,22.20
2010,07,15,11,25,22.20
2010,07,15,11,26,22.20
2010,07,15,11,27,22.20
2010,07,15,11,28,22.20
2010,07,15,11,29,22.20
2010,07,15,11,30,22.20
2010,07,15,11,31,22.20
2010,07,15,11,32,22.10
2010,07,15,11,33,22.00
2010,07,15,11,34,21.90
2010,07,15,11,35,22.00
2010,07,15,11,36,22.00
2010,07,15,11,37,22.10
2010,07,15,11,38,22.20
2010,07,15,11,39,22.30
2010,07,15,11,40,22.20
2010,07,15,11,41,22.20
2010,07,15,11,42,22.10
2010,07,15,11,43,22.10
2010,07,15,11,44,22.10
2010,07,15,11,45,22.20
2010,07,15,11,46,22.30
2010,07,15,11,47,22.30
2010,07,15,11,48,22.30
2010,07,15,11,49,22.30
2010,07,15,11,50,22.30
2010,07,15,11,51,22.30
2010,07,15,11,52,22.20
2010,07,15,11,53,22.10
2010,07,15,11,54,22.10
2010,07,15,11,55,22.20
2010,07,15,11,56,22.30
2010,07,15,11,57,22.40
2010,07,15,11,58,22.50
2010,07,15,11,59,22.50
2010,07,15,12,00,22.60
2010,07,15,12,01,22.60
2010,07,15,12,02,22.60
2010,07,15,12,03,22.60
2010,07,15,12,04,22.60
2010,07,15,12,05,22.70
2010,07,15,12,06,22.70
2010,07,15,12,07,22.70
2010,07,15,12,08,22.60
2010,07,15,12,09,22.70
2010,07,15,12,10,22.70
2010,07,15,12,11,22.80
2010,07,15,12,12,22.80
2010,07,15,12,13,22.90
2010,07,15,12,14,23.10
2010,07,15,12,15,23.20
2010,07,15,12,16,23.20
2010,07,15,12,17,23.30
2010,07,15,12,18,23.30
2010,07,15,12,19,23.20
2010,07,15,12,20,23.20
2010,07,15,12,21,23.10
2010,07,15,12,22,23.10
2010,07,15,12,23,23.20
2010,07,15,12,24,23.10
2010,07,15,12,25,23.10
2010,07,15,12,26,23.10
2010,07,15,12,27,23.10
2010,07,15,12,28,23.20
2010,07,15,12,29,23.20
2010,07,15,12,30,23.20
2010,07,15,12,31,23.30
2010,07,15,12,32,23.30
2010,07,15,12,33,23.40
2010,07,15,12,34,23.50
2010,07,15,12,35,23.60
2010,07,15,12,36,23.60
2010,07,15,12,37,23.60
2010,07,15,12,38,23.70
2010,07,15,12,39,23.60
2010,07,15,12,40,23.50
2010,07,15,12,41,23.60
2010,07,15,12,42,23.70
2010,07,15,12,43,23.80
2010,07,15,12,44,23.90
2010,07,15,12,45,24.00
2010,07,15,12,46,24.10
2010,07,15,12,47,24.00
2010,07,15,12,48,24.00
2010,07,15,12,49,23.90
2010,07,15,12,50,23.80
2010,07,15,12,51,23.70
2010,07,15,12,52,23.60
2010,07,15,12,53,23.70
2010,07,15,12,54,23.70
2010,07,15,12,55,23.80
2010,07,15,12,56,23.80
2010,07,15,12,57,23.80
2010,07,15,12,58,23.90
2010,07,15,12,59,23.90
2010,07,15,13,00,23.90
2010,07,15,13,01,23.80
2010,07,15,13,02,23.90
2010,07,15,13,03,23.80
2010,07,15,13,04,23.80
2010,07,15,13,05,23.80
2010,07,15,13,06,23.70
2010,07,15,13,07,23.60
2010,07,15,13,08,23.60
2010,07,15,13,09,23.80
2010,07,15,13,10,23.90
2010,07,15,13,11,24.00
2010,07,15,13,12,24.10
2010,07,15,13,13,24.00
2010,07,15,13,14,24.00
2010,07,15,13,15,23.90
2010,07,15,13,16,23.90
2010,07,15,13,17,23.80
2010,07,15,13,18,23.70
2010,07,15,13,19,23.70
2010,07,15,13,20,23.70
2010,07,15,13,21,23.80
2010,07,15,13,22,23.70
2010,07,15,13,23,23.60
2010,07,15,13,24,23.60
2010,07,15,13,25,23.50
2010,07,15,13,26,23.50
2010,07,15,13,27,23.60
2010,07,15,13,28,23.50
2010,07,15,13,29,23.50
2010,07,15,13,30,23.50
2010,07,15,13,31,23.40
2010,07,15,13,32,23.50
2010,07,15,13,33,23.70
2010,07,15,13,34,23.80
2010,07,15,13,35,23.80
2010,07,15,13,36,23.80
2010,07,15,13,37,23.90
2010,07,15,13,38,24.00
2010,07,15,13,39,24.00
2010,07,15,13,40,24.00
2010,07,15,13,41,24.00
2010,07,15,13,42,24.00
2010,07,15,13,43,24.00
2010,07,15,13,44,24.00
2010,07,15,13,45,24.10
2010,07,15,13,46,24.20
2010,07,15,13,47,24.30
2010,07,15,13,48,24.30
2010,07,15,13,49,24.20
2010,07,15,13,50,24.20
2010,07,15,13,51,24.20
2010,07,15,13,52,24.20
2010,07,15,13,53,24.10
2010,07,15,13,54,24.10
2010,07,15,13,55,24.10
2010,07,15,13,56,24.10
2010,07,15,13,57,24.10
2010,07,15,13,58,24.10
2010,07,15,13,59,24.20
2010,07,15,14,00,24.20
2010,07,15,14,01,24.20
2010,07,15,14,02,24.40
2010,07,15,14,03,24.40
2010,07,15,14,04,24.50
2010,07,15,14,05,24.60
2010,07,15,14,06,24.80
2010,07,15,14,07,24.90
2010,07,15,14,08,25.00
2010,07,15,14,09,25.10
2010,07,15,14,10,25.10
2010,07,15,14,11,25.30
2010,07,15,14,12,25.30
2010,07,15,14,13,25.30
2010,07,15,14,14,25.30
2010,07,15,14,15,25.30
2010,07,15,14,16,25.20
2010,07,15,14,17,25.20
2010,07,15,14,18,25.20
2010,07,15,14,19,25.10
2010,07,15,14,20,25.10
2010,07,15,14,21,25.10
2010,07,15,14,22,25.10
2010,07,15,14,23,25.00
2010,07,15,14,24,24.90
2010,07,15,14,25,24.80
2010,07,15,14,26,24.80
2010,07,15,14,27,24.90
2010,07,15,14,28,25.00
2010,07,15,14,29,25.00
2010,07,15,14,30,25.00
2010,07,15,14,31,25.00
2010,07,15,14,32,24.90
2010,07,15,14,33,24.90
2010,07,15,14,34,24.90
2010,07,15,14,35,25.00
2010,07,15,14,36,25.00
2010,07,15,14,37,25.10
2010,07,15,14,38,25.20
2010,07,15,14,39,25.10
2010,07,15,14,40,24.90
2010,07,15,14,41,24.80
2010,07,15,14,42,24.70
2010,07,15,14,43,24.70
2010,07,15,14,44,24.70
2010,07,15,14,45,24.80
2010,07,15,14,46,24.70
2010,07,15,14,47,24.60
2010,07,15,14,48,24.60
2010,07,15,14,49,24.60
2010,07,15,14,50,24.60
2010,07,15,14,51,24.70
2010,07,15,14,52,24.80
2010,07,15,14,53,24.80
2010,07,15,14,54,24.90
2010,07,15,14,55,24.90
2010,07,15,14,56,24.80
2010,07,15,14,57,24.80
2010,07,15,14,58,24.70
2010,07,15,14,59,24.60
2010,07,15,15,00,24.50
2010,07,15,15,01,24.50
2010,07,15,15,02,24.40
2010,07,15,15,03,24.50
2010,07,15,15,04,24.60
2010,07,15,15,05,24.60
2010,07,15,15,06,24.80
2010,07,15,15,07,24.90
2010,07,15,15,08,25.00
2010,07,15,15,09,25.10
2010,07,15,15,10,25.10
2010,07,15,15,11,25.10
2010,07,15,15,12,25.30
2010,07,15,15,13,25.30
2010,07,15,15,14,25.30
2010,07,15,15,15,25.20
2010,07,15,15,16,25.20
2010,07,15,15,17,25.10
2010,07,15,15,18,25.10
2010,07,15,15,19,25.20
2010,07,15,15,20,25.30
2010,07,15,15,21,25.50
2010,07,15,15,22,25.40
2010,07,15,15,23,25.20
2010,07,15,15,24,25.00
2010,07,15,15,25,24.90
2010,07,15,15,26,24.80
2010,07,15,15,27,24.70
2010,07,15,15,28,24.70
2010,07,15,15,29,24.60
2010,07,15,15,30,24.50
2010,07,15,15,31,24.30
2010,07,15,15,32,24.20
2010,07,15,15,33,24.10
2010,07,15,15,34,24.20
2010,07,15,15,35,24.20
2010,07,15,15,36,24.20
2010,07,15,15,37,24.20
2010,07,15,15,38,24.20
2010,07,15,15,39,24.20
2010,07,15,15,40,24.10
2010,07,15,15,41,24.00
2010,07,15,15,42,24.00
2010,07,15,15,43,24.10
2010,07,15,15,44,24.10
2010,07,15,15,45,24.20
2010,07,15,15,46,24.20
2010,07,15,15,47,24.30
2010,07,15,15,48,24.20
2010,07,15,15,49,24.00
2010,07,15,15,50,23.80
2010,07,15,15,51,23.90
2010,07,15,15,52,23.80
2010,07,15,15,53,23.80
2010,07,15,15,54,23.80
2010,07,15,15,55,23.70
2010,07,15,15,56,23.70
2010,07,15,15,57,23.80
2010,07,15,15,58,23.90
2010,07,15,15,59,24.00
2010,07,15,16,00,24.00
2010,07,15,16,01,23.80
2010,07,15,16,02,23.70
2010,07,15,16,03,23.60
2010,07,15,16,04,23.50
2010,07,15,16,05,23.40
2010,07,15,16,06,23.30
2010,07,15,16,07,23.50
2010,07,15,16,08,23.60
2010,07,15,16,09,23.60
2010,07,15,16,10,23.50
2010,07,15,16,11,23.40
2010,07,15,16,12,23.40
2010,07,15,16,13,23.30
2010,07,15,16,14,23.30
2010,07,15,16,15,23.40
2010,07,15,16,16,23.40
2010,07,15,16,17,23.40
2010,07,15,16,18,23.40
2010,07,15,16,19,23.30
2010,07,15,16,20,23.40
2010,07,15,16,21,23.60
2010,07,15,16,22,23.70
2010,07,15,16,23,23.70
2010,07,15,16,24,23.70
2010,07,15,16,25,23.60
2010,07,15,16,26,23.40
2010,07,15,16,27,23.30
2010,07,15,16,28,23.10
2010,07,15,16,29,23.10
2010,07,15,16,30,23.00
2010,07,15,16,31,22.90
2010,07,15,16,32,22.80
2010,07,15,16,33,22.80
2010,07,15,16,34,22.80
2010,07,15,16,35,22.90
2010,07,15,16,36,23.00
2010,07,15,16,37,23.10
2010,07,15,16,38,23.20
2010,07,15,16,39,23.20
2010,07,15,16,40,23.30
2010,07,15,16,41,23.30
2010,07,15,16,42,23.40
2010,07,15,16,43,23.40
2010,07,15,16,44,23.60
2010,07,15,16,45,23.80
2010,07,15,16,46,23.80
2010,07,15,16,47,23.70
2010,07,15,16,48,23.70
2010,07,15,16,49,23.70
2010,07,15,16,50,23.80
2010,07,15,16,51,23.70
2010,07,15,16,52,23.70
2010,07,15,16,53,23.60
2010,07,15,16,54,23.60
2010,07,15,16,55,23.60
2010,07,15,16,56,23.50
2010,07,15,16,57,23.50
2010,07,15,16,58,23.50
2010,07,15,16,59,23.60
2010,07,15,17,00,23.60
2010,07,15,17,01,23.60
2010,07,15,17,02,23.50
2010,07,15,17,03,23.40
2010,07,15,17,04,23.40
2010,07,15,17,05,23.40
2010,07,15,17,06,23.40
2010,07,15,17,07,23.40
2010,07,15,17,08,23.40
2010,07,15,17,09,23.40
2010,07,15,17,10,23.30
2010,07,15,17,11,23.30
2010,07,15,17,12,23.30
2010,07,15,17,13,23.30
2010,07,15,17,14,23.30
2010,07,15,17,15,23.30
2010,07,15,17,16,23.20
2010,07,15,17,17,23.30
2010,07,15,17,18,23.40
2010,07,15,17,19,23.50
2010,07,15,17,20,23.50
2010,07,15,17,21,23.50